Regional Weather Roundup
Issued by NWS Sterling, VA

Home | Current Version | Previous Version | Graphics & Text | Print | Product List | Glossary On
Versions: 1 2 3 4 5 6 7 8 9 10 11 12 13 14 15 16 17 18 19 20 21 22 23 24 25 26 27 28 29 30 31 32 33 34 35 36 37 38 39 40 41 42 43 44 45 46 47 48 49 50
000
ASUS41 KLWX 291210
RWRLWX

REGIONAL WEATHER ROUNDUP
NATIONAL WEATHER SERVICE BALTIMORE MD/WASHINGTON DC
800 AM EDT FRI MAY 29 2015

Note: "FAIR" indicates few or no clouds below 12,000 feet
with no significant weather and/or obstructions to visibility.
 TC=TEMPERATURE CELSIUS

 * =Non NWS site. Station does not report precipitation (e.g. rain,
    snow, etc.), thunder, or fog.

DCZ001-MDZ009-015-VAZ040>042-051-053>054-291300-
WASHINGTON METRO

CITY           SKY/WX    TMP DP  RH WIND       PRES   REMARKS
WASHINGTON NAT MOSUNNY   75  63  66 E12       30.26R
DULLES         MOSUNNY   72  61  68 E7        30.26R
ANDREWS AFB    PTSUNNY   69  67  92 NE8       30.25S
FT BELVOIR     CLOUDY    72  69  88 VRB2      30.25R
QUANTICO       CLOUDY    73  69  87 E9        30.25R
COLLEGE PARK*  CLOUDY    70  61  73 E5        30.26R
LEESBURG*      SUNNY     72  61  68 NE8       30.28S
MANASSAS*      CLOUDY    72  70  94 NE7       30.26R
GAITHERSBURG*  SUNNY     68  55  64 NE5       30.31S

$$

MDZ006>007-011-014-291300-
BALTIMORE METRO

CITY           SKY/WX    TMP DP  RH WIND       PRES   REMARKS
BWI AIRPORT    MOSUNNY   72  58  61 E14G24    30.27R
MD SCIENCE CTR   N/A     72  56  57 MISG      30.28R
MARTIN STATE   MOSUNNY   73  63  68 NE7       30.29R
ANNAPOLIS      CLOUDY    70  62  76 E8        30.27R
FORT MEADE*    SUNNY     70  59  68 E7        30.29R

$$

MDZ012-015-019>023-291300-
MARYLAND EASTERN SHORE

CITY           SKY/WX    TMP DP  RH WIND       PRES   REMARKS
OCEAN CITY     CLOUDY    70  65  84 CALM      30.27R
SALISBURY      PTSUNNY   68  64  87 SE5       30.26R
BAY BRIDGE AP*   N/A    N/A N/A N/A E9        30.27R
CAMBRIDGE*     CLOUDY    72  66  83 SE5       30.25R
EASTON*        CLOUDY    73  73 100 E6        30.29R

$$

MDZ017>025-291300-
SOUTHERN MARYLAND

CITY           SKY/WX    TMP DP  RH WIND       PRES   REMARKS
PATUXENT RIVER MOSUNNY   72  68  87 E5        30.25R
ST INIGOES     SUNNY     73  66  78 S5        30.24R
LEONARDTOWN*   PTSUNNY   72  66  83 SE3       30.26R

$$

MDZ003>005-291300-
NORTH CENTRAL MARYLAND

CITY           SKY/WX    TMP DP  RH WIND       PRES   REMARKS
FREDERICK*     MOSUNNY   70  61  73 NE6       30.21F
HAGERSTOWN APT PTSUNNY   69  56  62 N6        30.29R
WESTMINSTER*   SUNNY     70  55  60 E8        30.30R

$$

MDZ501>502-291300-
WESTERN MARYLAND

CITY           SKY/WX    TMP DP  RH WIND       PRES   REMARKS
OAKLAND*       SUNNY     63  61  94 SE13      30.33S
CUMBERLAND*    CLOUDY    68  59  73 N3        30.33R

$$

VAZ025>031-291300-
SHENANDOAH VALLEY

CITY           SKY/WX    TMP DP  RH WIND       PRES   REMARKS
WINCHESTER*    CLOUDY    70  52  52 CALM      30.28R
FRONT ROYAL*   CLOUDY    64  61  88 N3        30.28R
LURAY*         FAIR      68  68 100 N3        30.28R
NEW MARKET*    FAIR      66  62  87 NE5       30.27R
STAUNTON*      MOSUNNY   66  65  96 CALM      30.31R FOG
WAYNESBORO*    CLOUDY    64  64  97 CALM      30.29R

$$

WVZ021-048>050-054>055-291300-
EASTERN WEST VIRGINIA PANHANDLE

CITY           SKY/WX    TMP DP  RH WIND       PRES   REMARKS
MARTINSBURG    SUNNY     70  55  59 N6        30.29R
PETERSBURG*    MOSUNNY   65  62  93 CALM      30.30S

$$

VAZ036>039-050-291300-
CENTRAL FOOTHILLS

CITY           SKY/WX    TMP DP  RH WIND       PRES   REMARKS
CHARLOTTESVILL SUNNY     71  64  78 E3        30.26R
CULPEPER*      CLOUDY    69  67  93 CALM      30.27R
ORANGE*        CLOUDY    70  66  88 CALM      30.27R
GORDONSVILLE*  FAIR      69  66  89 N5        30.24S
WARRENTON*     CLOUDY    71  70  96 CALM      30.26R

$$

VAZ055>057-291300-
NORTH AND CENTRAL PIEDMONT

CITY           SKY/WX    TMP DP  RH WIND       PRES   REMARKS
FREDERICKSBRG* CLOUDY    72  72 100 E3        30.24R
STAFFORD*      CLOUDY    71  69  93 SE3       30.29R FOG

$$

NCZ024-NYZ072-PAZ021-071-VAZ022-071-291300-
OTHER REGIONAL OBSERVATIONS

CITY           SKY/WX    TMP DP  RH WIND       PRES   REMARKS
NEW YORK CITY  SUNNY     68  54  60 VRB5      30.33R
PHILADELPHIA   MOSUNNY   72  55  55 NE8       30.29R
PITTSBURGH     PTSUNNY   66  56  70 E5        30.23R
ROANOKE        MOSUNNY   69  64  84 CALM      30.29R
RICHMOND       MOSUNNY   72  66  81 S8        30.24R
RALEIGH        MOSUNNY   71  65  81 SW3       30.25R

$$

ANZ530>537-291300-
MARINE OBSERVATIONS

STATION/POSITION TIME  TEMP    WIND        PRES
                       AIR SEA DIR/SP/G
                 (UTC) (F)     (DEG/KT/KT) (MB)
THOMAS PT LIGHT  1200   69 71   50/ 10/ 12 1025.3R
BALT KEY BRIDGE  1100   72      60/ 12/ 14 1024.5R
COVE POINT       1100   71     170/  5/  6 1024.5R
LEWISETTA        1100   71 75              1023.7R
SOLOMONS ISLAND  1100      70                N/A
PINEY POINT      1100          180/  3/  3   N/A

$$




USA.gov is the U.S. government's official web portal to all federal, state and local government web resources and services.